Location: Banska Bystrica
(48.7330°N, 19.1500°E)
Time: 10:24:18
(UTC+02:00)

ISS - Pass Details

Date: 01 April 2019
Orbit: 408 x 410 km, 51.6° (Epoch: 25 April)

Event Time Altitude Azimuth Distance (km) Brightness Sun altitude
Rises 21:46:58 0° 290° (WNW) 2,338 1.2 -23.8°
Reaches altitude 10° 21:49:05 10° 286° (WNW) 1,474 -0.1 -24.0°
Enters shadow 21:50:55 29° 271° (W) 786 -2.0 -24.3°
